WON1897 WARR-WAHS

Flight info

Callsign WON1897
Flight time 0h 51m
Altitude 14000
Route LASEM
Aircraft AT76/M-SDFGIRY/S

Departure

Time 2026-04-29 05:58
Airport Juanda International Airport (WARR)

Arrival

Time 2026-04-29 06:49
Airport Jenderal Ahmad Yani Airport (WAHS)
Time Latitude Longitude Altitude Speed Heading
2026-04-29 05:16 -7.37534 112.79093 5 ft 0 kts
2026-04-29 05:48 -7.37546 112.79091 6 ft 2 kts
2026-04-29 05:49 -7.37560 112.79088 6 ft 2 kts 10°
2026-04-29 05:49 -7.37573 112.79086 6 ft 2 kts 10°
2026-04-29 05:49 -7.37587 112.79084 6 ft 2 kts
2026-04-29 05:49 -7.37599 112.79082 6 ft 2 kts
2026-04-29 05:50 -7.37609 112.79081 5 ft 1 kts 349°
2026-04-29 05:50 -7.37614 112.79082 5 ft 1 kts 319°
2026-04-29 05:50 -7.37618 112.79086 5 ft 1 kts 291°
2026-04-29 05:50 -7.37621 112.79096 6 ft 2 kts 279°
2026-04-29 05:51 -7.37623 112.79110 6 ft 2 kts 280°
2026-04-29 05:51 -7.37625 112.79121 6 ft 1 kts 279°
2026-04-29 05:51 -7.37626 112.79127 5 ft 1 kts 280°
2026-04-29 05:51 -7.37627 112.79133 5 ft 1 kts 280°
2026-04-29 05:52 -7.37627 112.79138 5 ft 1 kts 280°
2026-04-29 05:52 -7.37630 112.79120 5 ft 0 kts 250°
2026-04-29 05:52 -7.37635 112.79112 5 ft 3 kts 234°
2026-04-29 05:52 -7.37658 112.79097 5 ft 5 kts 201°
2026-04-29 05:53 -7.37689 112.79091 5 ft 4 kts 188°
2026-04-29 05:53 -7.37728 112.79087 5 ft 7 kts 187°
2026-04-29 05:53 -7.37773 112.79082 5 ft 7 kts 187°
2026-04-29 05:53 -7.37862 112.79011 6 ft 29 kts 278°
2026-04-29 05:54 -7.37833 112.78839 6 ft 22 kts 279°
2026-04-29 05:54 -7.37808 112.78692 5 ft 23 kts 279°
2026-04-29 05:54 -7.37780 112.78516 6 ft 27 kts 280°
2026-04-29 05:54 -7.37752 112.78339 6 ft 22 kts 277°
2026-04-29 05:55 -7.37732 112.78201 6 ft 21 kts 278°
2026-04-29 05:55 -7.37699 112.78017 6 ft 32 kts 280°
2026-04-29 05:55 -7.37664 112.77772 6 ft 38 kts 281°
2026-04-29 05:55 -7.37618 112.77491 5 ft 41 kts 282°
2026-04-29 05:56 -7.37676 112.77380 5 ft 5 kts 189°
2026-04-29 05:56 -7.37721 112.77371 5 ft 10 kts 189°
2026-04-29 05:56 -7.37767 112.77371 5 ft 2 kts 139°
2026-04-29 05:56 -7.37773 112.77383 5 ft 0 kts 102°
2026-04-29 05:57 -7.37778 112.77409 6 ft 23 kts 101°
2026-04-29 05:57 -7.37838 112.77792 6 ft 86 kts 99°
2026-04-29 05:57 -7.37960 112.78563 24 ft 131 kts 98°
2026-04-29 05:58 -7.38100 112.79496 395 ft 140 kts 98°
2026-04-29 05:58 -7.38254 112.80505 849 ft 148 kts 98°
2026-04-29 05:58 -7.38384 112.81547 1167 ft 158 kts 98°
2026-04-29 05:58 -7.38554 112.82724 1230 ft 177 kts 97°
2026-04-29 05:59 -7.38729 112.83958 1562 ft 178 kts 98°
2026-04-29 05:59 -7.38919 112.85195 1894 ft 179 kts 98°
2026-04-29 05:59 -7.39112 112.86436 2228 ft 179 kts 99°
2026-04-29 05:59 -7.39188 112.87688 2553 ft 181 kts 75°
2026-04-29 06:00 -7.38436 112.88659 2855 ft 181 kts 25°
2026-04-29 06:00 -7.37217 112.88747 3144 ft 180 kts 337°
2026-04-29 06:00 -7.36358 112.87989 3405 ft 178 kts 296°
2026-04-29 06:00 -7.35801 112.86866 3632 ft 181 kts 296°
2026-04-29 06:01 -7.35208 112.85749 3937 ft 181 kts 297°
2026-04-29 06:01 -7.34612 112.84627 4237 ft 182 kts 296°
2026-04-29 06:01 -7.34014 112.83499 4560 ft 183 kts 296°
2026-04-29 06:01 -7.33418 112.82363 4848 ft 184 kts 296°
2026-04-29 06:02 -7.32809 112.81229 5139 ft 184 kts 297°
2026-04-29 06:02 -7.32195 112.80092 5462 ft 185 kts 297°
2026-04-29 06:02 -7.31580 112.78948 5790 ft 186 kts 297°
2026-04-29 06:02 -7.30954 112.77799 6082 ft 187 kts 297°
2026-04-29 06:03 -7.30328 112.76648 6384 ft 188 kts 297°
2026-04-29 06:03 -7.29699 112.75490 6672 ft 189 kts 297°
2026-04-29 06:03 -7.29077 112.74346 6959 ft 190 kts 297°
2026-04-29 06:03 -7.28442 112.73179 7240 ft 190 kts 297°
2026-04-29 06:04 -7.27806 112.72005 7506 ft 191 kts 297°
2026-04-29 06:04 -7.27164 112.70826 7762 ft 192 kts 297°
2026-04-29 06:04 -7.26522 112.69644 8040 ft 193 kts 297°
2026-04-29 06:04 -7.25878 112.68459 8315 ft 193 kts 297°
2026-04-29 06:05 -7.25232 112.67268 8569 ft 194 kts 297°
2026-04-29 06:05 -7.24584 112.66072 8820 ft 195 kts 297°
2026-04-29 06:05 -7.23932 112.64873 9068 ft 196 kts 297°
2026-04-29 06:05 -7.23275 112.63668 9313 ft 196 kts 297°
2026-04-29 06:06 -7.22618 112.62458 9522 ft 199 kts 297°
2026-04-29 06:06 -7.21961 112.61226 9784 ft 199 kts 297°
2026-04-29 06:06 -7.21312 112.59998 10023 ft 199 kts 297°
2026-04-29 06:06 -7.20662 112.58765 10244 ft 200 kts 297°
2026-04-29 06:07 -7.20222 112.57950 10393 ft 201 kts 298°
2026-04-29 06:07 -7.19528 112.56727 10638 ft 201 kts 298°
2026-04-29 06:07 -7.18612 112.55100 10929 ft 202 kts 298°
2026-04-29 06:07 -7.17921 112.53871 11158 ft 202 kts 298°
2026-04-29 06:08 -7.17453 112.53036 11304 ft 204 kts 298°
2026-04-29 06:08 -7.16762 112.51790 11525 ft 204 kts 298°
2026-04-29 06:08 -7.16077 112.50535 11760 ft 205 kts 298°
2026-04-29 06:08 -7.15165 112.48865 12049 ft 206 kts 297°
2026-04-29 06:09 -7.14709 112.48025 12189 ft 206 kts 297°
2026-04-29 06:09 -7.14018 112.46756 12415 ft 207 kts 297°
2026-04-29 06:09 -7.13324 112.45482 12615 ft 207 kts 298°
2026-04-29 06:09 -7.12631 112.44209 12814 ft 208 kts 297°
2026-04-29 06:10 -7.11935 112.42932 13005 ft 208 kts 298°
2026-04-29 06:10 -7.11237 112.41649 13227 ft 209 kts 297°
2026-04-29 06:10 -7.10536 112.40363 13424 ft 210 kts 297°
2026-04-29 06:10 -7.09835 112.39072 13610 ft 210 kts 298°
2026-04-29 06:11 -7.09130 112.37776 13793 ft 211 kts 298°
2026-04-29 06:11 -7.08418 112.36469 13916 ft 215 kts 298°
2026-04-29 06:11 -7.07687 112.35126 13956 ft 222 kts 298°
2026-04-29 06:11 -7.06934 112.33746 13981 ft 228 kts 297°
2026-04-29 06:12 -7.06164 112.32328 13995 ft 234 kts 298°
2026-04-29 06:12 -7.05715 112.31505 14006 ft 237 kts 298°
2026-04-29 06:12 -7.05696 112.31469 14001 ft 237 kts 298°
2026-04-29 06:12 -7.04897 112.30000 13996 ft 242 kts 298°
2026-04-29 06:13 -7.04079 112.28500 14003 ft 246 kts 298°
2026-04-29 06:13 -7.03251 112.26980 14002 ft 249 kts 298°
2026-04-29 06:13 -7.02416 112.25445 14003 ft 251 kts 298°
2026-04-29 06:13 -7.01573 112.23901 14005 ft 253 kts 298°
2026-04-29 06:14 -7.00725 112.22344 14000 ft 254 kts 298°
2026-04-29 06:14 -6.99874 112.20782 13997 ft 255 kts 298°
2026-04-29 06:14 -6.99018 112.19211 14005 ft 256 kts 298°
2026-04-29 06:14 -6.98161 112.17637 13998 ft 257 kts 298°
2026-04-29 06:15 -6.97298 112.16064 13993 ft 257 kts 298°
2026-04-29 06:15 -6.96450 112.14512 14000 ft 255 kts 298°
2026-04-29 06:15 -6.95578 112.12961 14005 ft 254 kts 300°
2026-04-29 06:15 -6.94629 112.11460 13997 ft 254 kts 303°
2026-04-29 06:16 -6.93642 112.09991 13997 ft 253 kts 303°
2026-04-29 06:16 -6.92654 112.08529 13999 ft 252 kts 303°
2026-04-29 06:16 -6.91666 112.07065 14002 ft 252 kts 303°
2026-04-29 06:16 -6.90692 112.05597 13994 ft 252 kts 303°
2026-04-29 06:17 -6.89728 112.04128 13998 ft 251 kts 303°
2026-04-29 06:17 -6.88764 112.02657 13995 ft 251 kts 303°
2026-04-29 06:17 -6.87801 112.01189 14003 ft 251 kts 302°
2026-04-29 06:17 -6.86841 111.99721 13999 ft 251 kts 302°
2026-04-29 06:18 -6.85896 111.98274 14000 ft 251 kts 302°
2026-04-29 06:18 -6.84935 111.96807 13997 ft 251 kts 302°
2026-04-29 06:18 -6.83978 111.95342 13996 ft 251 kts 303°
2026-04-29 06:18 -6.83017 111.93877 14001 ft 251 kts 302°
2026-04-29 06:19 -6.82056 111.92410 13998 ft 251 kts 303°
2026-04-29 06:19 -6.81096 111.90943 14007 ft 251 kts 303°
2026-04-29 06:19 -6.80134 111.89475 14002 ft 251 kts 303°
2026-04-29 06:19 -6.79175 111.88008 14001 ft 251 kts 302°
2026-04-29 06:20 -6.78214 111.86540 13992 ft 251 kts 303°
2026-04-29 06:20 -6.77254 111.85079 13996 ft 250 kts 302°
2026-04-29 06:20 -6.76297 111.83618 13995 ft 250 kts 303°
2026-04-29 06:20 -6.75341 111.82160 13998 ft 249 kts 303°
2026-04-29 06:21 -6.74389 111.80704 14004 ft 249 kts 303°
2026-04-29 06:21 -6.73435 111.79250 14003 ft 249 kts 303°
2026-04-29 06:21 -6.72483 111.77797 14002 ft 249 kts 302°
2026-04-29 06:21 -6.71532 111.76346 14003 ft 249 kts 303°
2026-04-29 06:22 -6.70580 111.74895 14002 ft 248 kts 302°
2026-04-29 06:22 -6.69630 111.73444 13997 ft 248 kts 303°
2026-04-29 06:22 -6.68690 111.72013 13997 ft 248 kts 303°
2026-04-29 06:22 -6.67741 111.70562 14000 ft 248 kts 303°
2026-04-29 06:23 -6.66788 111.69111 13997 ft 248 kts 303°
2026-04-29 06:23 -6.65839 111.67661 14006 ft 248 kts 303°
2026-04-29 06:23 -6.64886 111.66209 14001 ft 248 kts 303°
2026-04-29 06:23 -6.63936 111.64760 13997 ft 248 kts 302°
2026-04-29 06:24 -6.62983 111.63307 13999 ft 248 kts 303°
2026-04-29 06:24 -6.62229 111.61769 14001 ft 245 kts 279°
2026-04-29 06:24 -6.62257 111.60074 13999 ft 243 kts 261°
2026-04-29 06:24 -6.62637 111.58417 13998 ft 243 kts 253°
2026-04-29 06:25 -6.63155 111.56816 13997 ft 243 kts 251°
2026-04-29 06:25 -6.63706 111.55201 14000 ft 244 kts 251°
2026-04-29 06:25 -6.64234 111.53607 13999 ft 239 kts 252°
2026-04-29 06:25 -6.64735 111.52000 13997 ft 241 kts 253°
2026-04-29 06:26 -6.65225 111.50385 13999 ft 242 kts 252°
2026-04-29 06:26 -6.65730 111.48765 13998 ft 243 kts 252°
2026-04-29 06:26 -6.66247 111.47144 13998 ft 244 kts 252°
2026-04-29 06:26 -6.66770 111.45518 14006 ft 244 kts 252°
2026-04-29 06:27 -6.67295 111.43891 14000 ft 245 kts 252°
2026-04-29 06:27 -6.67822 111.42261 14001 ft 245 kts 251°
2026-04-29 06:27 -6.68346 111.40630 13997 ft 245 kts 253°
2026-04-29 06:27 -6.68773 111.38969 14000 ft 246 kts 256°
2026-04-29 06:28 -6.69177 111.37296 14000 ft 246 kts 256°
2026-04-29 06:28 -6.69616 111.35634 13998 ft 246 kts 253°
2026-04-29 06:28 -6.70105 111.33983 13997 ft 246 kts 252°
2026-04-29 06:28 -6.70608 111.32337 13998 ft 246 kts 252°
2026-04-29 06:29 -6.71100 111.30712 13997 ft 246 kts 253°
2026-04-29 06:29 -6.71596 111.29062 14004 ft 246 kts 253°
2026-04-29 06:29 -6.72093 111.27411 13997 ft 246 kts 253°
2026-04-29 06:29 -6.72590 111.25764 14002 ft 246 kts 253°
2026-04-29 06:30 -6.73088 111.24113 13997 ft 246 kts 253°
2026-04-29 06:30 -6.74083 111.20812 14002 ft 247 kts 253°
2026-04-29 06:30 -6.74581 111.19158 14000 ft 247 kts 253°
2026-04-29 06:31 -6.75079 111.17506 14006 ft 247 kts 253°
2026-04-29 06:31 -6.75577 111.15853 14002 ft 247 kts 253°
2026-04-29 06:31 -6.76073 111.14202 14002 ft 247 kts 253°
2026-04-29 06:31 -6.76438 111.12525 13999 ft 246 kts 263°
2026-04-29 06:32 -6.76606 111.10807 13999 ft 247 kts 264°
2026-04-29 06:32 -6.76761 111.09083 13999 ft 247 kts 264°
2026-04-29 06:32 -6.76957 111.07332 13619 ft 260 kts 262°
2026-04-29 06:32 -6.77217 111.05472 12987 ft 275 kts 261°
2026-04-29 06:33 -6.77504 111.03585 12740 ft 271 kts 261°
2026-04-29 06:33 -6.77774 111.01737 12494 ft 268 kts 261°
2026-04-29 06:33 -6.78041 110.99889 12245 ft 266 kts 261°
2026-04-29 06:33 -6.78306 110.98052 11995 ft 264 kts 261°
2026-04-29 06:34 -6.78569 110.96226 11744 ft 263 kts 261°
2026-04-29 06:34 -6.78832 110.94407 11493 ft 262 kts 261°
2026-04-29 06:34 -6.79094 110.92597 11240 ft 261 kts 261°
2026-04-29 06:34 -6.79353 110.90793 10982 ft 260 kts 261°
2026-04-29 06:35 -6.79613 110.88996 10693 ft 261 kts 261°
2026-04-29 06:35 -6.79881 110.87137 10280 ft 272 kts 261°
2026-04-29 06:35 -6.80153 110.85248 10103 ft 273 kts 261°
2026-04-29 06:35 -6.80423 110.83361 9917 ft 271 kts 261°
2026-04-29 06:36 -6.80695 110.81486 9650 ft 270 kts 261°
2026-04-29 06:36 -6.80960 110.79641 9390 ft 270 kts 261°
2026-04-29 06:36 -6.81229 110.77778 9144 ft 268 kts 261°
2026-04-29 06:36 -6.81494 110.75924 8870 ft 267 kts 261°
2026-04-29 06:37 -6.81761 110.74075 8572 ft 266 kts 261°
2026-04-29 06:37 -6.82025 110.72236 8201 ft 265 kts 261°
2026-04-29 06:37 -6.82290 110.70406 7843 ft 263 kts 261°
2026-04-29 06:37 -6.82549 110.68592 7450 ft 262 kts 261°
2026-04-29 06:38 -6.82808 110.66786 7065 ft 260 kts 261°
2026-04-29 06:38 -6.82891 110.64991 6594 ft 257 kts 279°
2026-04-29 06:38 -6.82471 110.63240 6158 ft 257 kts 283°
2026-04-29 06:38 -6.82086 110.61500 5655 ft 255 kts 280°
2026-04-29 06:39 -6.81852 110.59731 5257 ft 253 kts 274°
2026-04-29 06:39 -6.81749 110.57967 4850 ft 252 kts 272°
2026-04-29 06:39 -6.81689 110.56233 4487 ft 251 kts 271°
2026-04-29 06:39 -6.81636 110.54475 4457 ft 251 kts 271°
2026-04-29 06:40 -6.81559 110.52750 4450 ft 243 kts 272°
2026-04-29 06:40 -6.81469 110.51063 4376 ft 241 kts 273°
2026-04-29 06:40 -6.81376 110.49380 4248 ft 241 kts 272°
2026-04-29 06:40 -6.81285 110.47690 4122 ft 242 kts 272°
2026-04-29 06:41 -6.81189 110.46002 3997 ft 242 kts 272°
2026-04-29 06:41 -6.81096 110.44313 3874 ft 241 kts 272°
2026-04-29 06:41 -6.81004 110.42630 3749 ft 240 kts 273°
2026-04-29 06:41 -6.80909 110.40956 3623 ft 239 kts 272°
2026-04-29 06:42 -6.80818 110.39309 3498 ft 237 kts 272°
2026-04-29 06:42 -6.80727 110.37654 3372 ft 236 kts 273°
2026-04-29 06:42 -6.80634 110.36014 3246 ft 233 kts 272°
2026-04-29 06:42 -6.80546 110.34398 3121 ft 230 kts 272°
2026-04-29 06:43 -6.80459 110.32796 2995 ft 228 kts 272°
2026-04-29 06:43 -6.80433 110.31213 2874 ft 223 kts 261°
2026-04-29 06:43 -6.81090 110.29858 2776 ft 218 kts 231°
2026-04-29 06:43 -6.82125 110.28770 2679 ft 206 kts 222°
2026-04-29 06:44 -6.83156 110.27897 2581 ft 183 kts 219°
2026-04-29 06:44 -6.84107 110.27138 2500 ft 167 kts 218°
2026-04-29 06:44 -6.84999 110.26429 2399 ft 163 kts 218°
2026-04-29 06:44 -6.85892 110.25731 2279 ft 161 kts 217°
2026-04-29 06:45 -6.86928 110.25398 2109 ft 165 kts 170°
2026-04-29 06:45 -6.87825 110.26014 2157 ft 155 kts 129°
2026-04-29 06:45 -6.88494 110.26878 2272 ft 158 kts 128°
2026-04-29 06:45 -6.89159 110.27757 2191 ft 164 kts 128°
2026-04-29 06:46 -6.89853 110.28691 1967 ft 168 kts 128°
2026-04-29 06:46 -6.90564 110.29617 1738 ft 164 kts 131°
2026-04-29 06:46 -6.91293 110.30463 1526 ft 156 kts 133°
2026-04-29 06:46 -6.91980 110.31261 1328 ft 142 kts 131°
2026-04-29 06:47 -6.92582 110.31986 1146 ft 129 kts 131°
2026-04-29 06:47 -6.93139 110.32657 981 ft 121 kts 131°
2026-04-29 06:47 -6.93664 110.33283 823 ft 116 kts 131°
2026-04-29 06:47 -6.94180 110.33894 671 ft 113 kts 131°
2026-04-29 06:48 -6.94648 110.34447 533 ft 112 kts 133°
2026-04-29 06:48 -6.95066 110.34938 410 ft 111 kts 131°
2026-04-29 06:48 -6.95553 110.35540 248 ft 111 kts 130°
2026-04-29 06:48 -6.96047 110.36125 105 ft 110 kts 130°
2026-04-29 06:49 -6.96533 110.36700 5 ft 102 kts 130°
2026-04-29 06:49 -6.96884 110.37113 2 ft 38 kts 129°
2026-04-29 06:49 -6.97032 110.37290 1 ft 29 kts 133°
2026-04-29 06:49 -6.97097 110.37366 0 ft 10 kts 128°
2026-04-29 06:50 -6.97086 110.37427 2 ft 8 kts 44°
2026-04-29 06:50 -6.97062 110.37448 7 ft 2 kts 39°
2026-04-29 06:50 -6.97037 110.37468 10 ft 10 kts 41°
2026-04-29 06:50 -6.96972 110.37523 14 ft 12 kts 39°
2026-04-29 06:51 -6.96907 110.37562 15 ft 6 kts 345°
2026-04-29 06:51 -6.96878 110.37571 16 ft 6 kts 34°
2026-04-29 06:51 -6.96844 110.37600 15 ft 8 kts 39°
2026-04-29 06:51 -6.96837 110.37606 15 ft 0 kts 39°
2026-04-29 07:23 -6.96843 110.37601 15 ft 2 kts 39°
2026-04-29 07:23 -6.96853 110.37592 15 ft 2 kts 40°
2026-04-29 07:23 -6.96864 110.37583 15 ft 2 kts 40°
2026-04-29 07:23 -6.96874 110.37575 16 ft 2 kts 40°
2026-04-29 07:24 -6.96885 110.37566 17 ft 2 kts 36°
2026-04-29 07:24 -6.96892 110.37561 15 ft 1 kts 19°
2026-04-29 07:24 -6.96898 110.37560 15 ft 1 kts 352°
2026-04-29 07:24 -6.96903 110.37561 15 ft 1 kts 326°
2026-04-29 07:25 -6.96907 110.37564 15 ft 1 kts 315°
2026-04-29 07:25 -6.96911 110.37568 15 ft 1 kts 311°